Location: Byszew
(52.1813°N, 19.2693°E)
Time: 04:12:41
(UTC+00:00)

AIST 2D - Pass Details

Date: 02 July 2022
Orbit: 433 x 443 km, 97.0° (Epoch: 17 August)

Event Time Altitude Azimuth Distance (km) Brightness Sun altitude
Rises 20:02:55 0° 18° (NNE) 2,430 ? -6.7°
Reaches altitude 10° 20:05:01 10° 26° (NNE) 1,557 ? -6.9°
Maximum altitude 20:08:12 42° 98° (E) 643 ? -7.2°
Drops below altitude 10° 20:11:22 10° 171° (S) 1,549 ? -7.5°
Enters shadow 20:11:54 - 174° (S) 1,768 ? -7.6°
